TimeMST,TemperatureF,Dew PointF,Humidity,Sea Level PressureIn,VisibilityMPH,Wind Direction,Wind SpeedMPH,Gust SpeedMPH,PrecipitationIn,Events,Conditions,WindDirDegrees,DateUTC
12:53 AM,46.0,27.0,47,29.78,10.0,SW,28.8,46.0,N/A,,Clear,220,2013-03-03 07:53:00
1:53 AM,46.9,27.0,46,29.76,10.0,SSW,29.9,40.3,N/A,,Overcast,210,2013-03-03 08:53:00
2:53 AM,46.9,28.0,48,29.73,10.0,SW,31.1,44.9,N/A,,Overcast,220,2013-03-03 09:53:00
3:53 AM,46.9,28.0,48,29.70,10.0,SW,25.3,40.3,N/A,,Overcast,220,2013-03-03 10:53:00
4:53 AM,46.0,28.0,50,29.70,10.0,SW,29.9,41.4,N/A,,Overcast,220,2013-03-03 11:53:00
5:53 AM,45.0,28.0,52,29.68,10.0,SW,24.2,32.2,N/A,,Mostly Cloudy,220,2013-03-03 12:53:00
6:53 AM,45.0,28.0,52,29.66,10.0,SSW,31.1,38.0,N/A,,Scattered Clouds,210,2013-03-03 13:53:00
7:53 AM,46.0,28.0,50,29.65,10.0,SSW,28.8,38.0,N/A,,Overcast,210,2013-03-03 14:53:00
8:53 AM,46.0,28.0,50,29.62,10.0,SSW,23.0,29.9,N/A,,Mostly Cloudy,210,2013-03-03 15:53:00
9:53 AM,45.0,30.0,56,29.63,10.0,West,16.1,-,N/A,,Overcast,270,2013-03-03 16:53:00
10:53 AM,43.0,32.0,65,29.61,10.0,NW,12.7,-,N/A,,Overcast,320,2013-03-03 17:53:00
11:53 AM,46.0,32.0,58,29.56,10.0,NW,13.8,-,N/A,,Overcast,320,2013-03-03 18:53:00
12:53 PM,44.1,34.0,68,29.52,10.0,NW,12.7,21.9,0.00,Rain,Light Rain,310,2013-03-03 19:53:00
1:19 PM,32.0,26.6,80,29.60,1.5,NNW,39.1,54.1,0.00,Snow,Light Snow,340,2013-03-03 20:19:00
1:21 PM,32.0,26.6,80,29.60,1.0,NNW,38.0,54.1,0.00,Snow,Light Snow,340,2013-03-03 20:21:00
1:24 PM,30.2,26.6,86,29.59,0.5,NNW,43.7,52.9,0.02,Fog-Snow,Snow,340,2013-03-03 20:24:00
1:34 PM,30.2,26.6,86,29.60,0.2,NNW,36.8,51.8,0.02,Fog-Snow,Snow,340,2013-03-03 20:34:00
1:53 PM,28.0,24.1,85,29.68,0.2,NNW,38.0,55.2,0.02,Fog-Snow,Snow,330,2013-03-03 20:53:00
2:27 PM,28.4,24.8,86,29.70,0.2,NW,21.9,31.1,0.01,Fog-Snow,Heavy Snow,320,2013-03-03 21:27:00
2:40 PM,28.4,24.8,86,29.70,0.8,NNW,19.6,28.8,0.01,Snow,Light Snow,330,2013-03-03 21:40:00
2:48 PM,28.4,24.8,86,29.72,0.8,NW,20.7,26.5,0.01,Snow,Light Snow,320,2013-03-03 21:48:00
2:53 PM,28.0,25.0,88,29.75,0.5,NW,18.4,-,0.01,Fog-Snow,Snow,310,2013-03-03 21:53:00
3:24 PM,28.4,24.8,86,29.73,0.5,West,16.1,-,0.01,Fog-Snow,Snow,260,2013-03-03 22:24:00
3:40 PM,28.4,24.8,86,29.74,0.8,WSW,13.8,24.2,0.01,Snow,Light Snow,250,2013-03-03 22:40:00
3:43 PM,28.4,24.8,86,29.74,1.5,SW,16.1,-,0.01,Snow,Light Snow,230,2013-03-03 22:43:00
3:45 PM,28.4,24.8,86,29.74,2.0,SW,17.3,-,0.01,Snow,Light Snow,230,2013-03-03 22:45:00
3:53 PM,30.0,23.0,75,29.76,9.0,SW,17.3,-,0.01,,Overcast,220,2013-03-03 22:53:00
4:53 PM,33.1,16.0,50,29.76,10.0,WSW,24.2,31.1,N/A,,Partly Cloudy,240,2013-03-03 23:53:00
5:53 PM,30.9,7.0,37,29.80,10.0,West,25.3,-,N/A,,Clear,270,2013-03-04 00:53:00
6:53 PM,28.9,8.1,41,29.84,10.0,West,17.3,26.5,N/A,,Clear,260,2013-03-04 01:53:00
7:53 PM,28.0,10.9,49,29.88,10.0,WSW,10.4,-,N/A,,Overcast,250,2013-03-04 02:53:00
8:53 PM,28.9,12.0,49,29.90,10.0,WNW,18.4,27.6,N/A,,Overcast,290,2013-03-04 03:53:00
9:27 PM,24.8,17.6,74,29.89,10.0,NNW,18.4,31.1,N/A,,Overcast,330,2013-03-04 04:27:00
9:53 PM,23.0,16.0,74,29.98,3.0,NW,20.7,31.1,0.00,Snow,Light Snow,320,2013-03-04 04:53:00
10:36 PM,21.2,15.8,80,29.92,2.0,WNW,21.9,29.9,0.00,Snow,Light Snow,300,2013-03-04 05:36:00
10:45 PM,21.2,17.6,86,29.92,1.8,WNW,18.4,28.8,0.00,Snow,Light Snow,300,2013-03-04 05:45:00
10:53 PM,23.0,16.0,74,29.99,3.0,NW,24.2,29.9,0.00,Snow,Light Snow,320,2013-03-04 05:53:00
11:19 PM,24.8,10.4,54,29.93,10.0,NW,19.6,29.9,0.00,,Overcast,310,2013-03-04 06:19:00
11:53 PM,23.0,10.9,60,30.01,10.0,NNW,19.6,25.3,0.00,,Overcast,330,2013-03-04 06:53:00